Time,TemperatureF,DewpointF,PressureIn,WindDirection,WindDirectionDegrees,WindSpeedMPH,WindSpeedGustMPH,Humidity,HourlyPrecipIn,Conditions,Clouds,dailyrainin,SoftwareType,DateUTC
2013-05-30 00:01:00,51.0,40.0,-100.00,SSE,162,2.0,7.0,65,-99.99,,,-99.99,,2013-05-30 07:01:00,
2013-05-30 00:12:00,51.0,40.0,-100.00,SSE,162,2.0,7.0,65,-99.99,,,-99.99,,2013-05-30 07:12:00,
2013-05-30 00:21:00,53.0,39.0,-100.00,SSW,209,2.0,6.0,60,-99.99,,,-99.99,,2013-05-30 07:21:00,
2013-05-30 00:31:00,55.0,38.0,-100.00,WSW,240,6.0,11.0,53,-99.99,,,-99.99,,2013-05-30 07:31:00,
2013-05-30 00:42:00,55.0,38.0,-100.00,WSW,240,6.0,11.0,53,-99.99,,,-99.99,,2013-05-30 07:42:00,
2013-05-30 00:52:00,50.0,39.0,-100.00,SE,133,1.0,4.0,65,-99.99,,,-99.99,,2013-05-30 07:52:00,
2013-05-30 01:02:00,51.0,39.0,-100.00,SSE,151,2.0,7.0,64,-99.99,,,-99.99,,2013-05-30 08:02:00,
2013-05-30 01:11:00,47.0,39.0,-100.00,SSW,206,5.0,9.0,73,-99.99,,,-99.99,,2013-05-30 08:11:00,
2013-05-30 01:21:00,43.0,38.0,-100.00,East,85,3.0,5.0,81,-99.99,,,-99.99,,2013-05-30 08:21:00,
2013-05-30 01:31:00,45.0,37.0,-100.00,ENE,78,4.0,6.0,74,-99.99,,,-99.99,,2013-05-30 08:31:00,
2013-05-30 01:42:00,45.0,37.0,-100.00,ENE,78,4.0,6.0,74,-99.99,,,-99.99,,2013-05-30 08:42:00,
2013-05-30 01:53:00,45.0,36.0,-100.00,East,89,4.0,6.0,70,-99.99,,,-99.99,,2013-05-30 08:53:00,
2013-05-30 02:01:00,45.0,36.0,-100.00,East,89,4.0,6.0,70,-99.99,,,-99.99,,2013-05-30 09:01:00,
2013-05-30 02:11:00,44.0,36.0,-100.00,East,97,7.0,9.0,72,-99.99,,,-99.99,,2013-05-30 09:11:00,
2013-05-30 02:21:00,45.0,36.0,-100.00,East,97,7.0,9.0,72,-99.99,,,-99.99,,2013-05-30 09:21:00,
2013-05-30 02:32:00,44.0,36.0,-100.00,East,85,5.0,7.0,73,-99.99,,,-99.99,,2013-05-30 09:32:00,
2013-05-30 02:42:00,45.0,36.0,-100.00,East,88,4.0,6.0,73,-99.99,,,-99.99,,2013-05-30 09:42:00,
2013-05-30 02:53:00,42.0,35.0,-100.00,SE,145,4.0,8.0,75,-99.99,,,-99.99,,2013-05-30 09:53:00,
2013-05-30 03:02:00,42.0,35.0,-100.00,SW,227,1.0,4.0,77,-99.99,,,-99.99,,2013-05-30 10:02:00,
2013-05-30 03:12:00,42.0,35.0,-100.00,South,175,0.0,2.0,77,-99.99,,,-99.99,,2013-05-30 10:12:00,
2013-05-30 03:22:00,42.0,36.0,-100.00,ESE,120,0.0,3.0,78,-99.99,,,-99.99,,2013-05-30 10:22:00,
2013-05-30 03:32:00,40.0,34.0,-100.00,ESE,117,3.0,5.0,80,-99.99,,,-99.99,,2013-05-30 10:32:00,
2013-05-30 03:42:00,40.0,34.0,-100.00,ESE,117,3.0,5.0,80,-99.99,,,-99.99,,2013-05-30 10:42:00,
2013-05-30 03:52:00,40.0,34.0,-100.00,ESE,117,3.0,5.0,80,-99.99,,,-99.99,,2013-05-30 10:52:00,
2013-05-30 04:03:00,40.0,35.0,-100.00,East,99,3.0,6.0,82,-99.99,,,-99.99,,2013-05-30 11:03:00,
2013-05-30 04:12:00,40.0,34.0,-100.00,ESE,123,6.0,8.0,79,-99.99,,,-99.99,,2013-05-30 11:12:00,
2013-05-30 04:21:00,40.0,34.0,-100.00,ESE,123,6.0,8.0,79,-99.99,,,-99.99,,2013-05-30 11:21:00,
2013-05-30 04:32:00,41.0,34.0,-100.00,ESE,114,2.0,4.0,78,-99.99,,,-99.99,,2013-05-30 11:32:00,
2013-05-30 04:42:00,41.0,34.0,-100.00,ESE,114,2.0,4.0,78,-99.99,,,-99.99,,2013-05-30 11:42:00,
2013-05-30 04:52:00,40.0,35.0,-100.00,ESE,113,0.0,2.0,81,-99.99,,,-99.99,,2013-05-30 11:52:00,
2013-05-30 05:01:00,40.0,33.0,-100.00,NE,55,2.0,4.0,77,-99.99,,,-99.99,,2013-05-30 12:01:00,
2013-05-30 05:11:00,40.0,33.0,-100.00,NE,55,2.0,4.0,77,-99.99,,,-99.99,,2013-05-30 12:11:00,
2013-05-30 05:22:00,40.0,34.0,-100.00,NE,47,1.0,3.0,78,-99.99,,,-99.99,,2013-05-30 12:22:00,
2013-05-30 05:32:00,40.0,34.0,-100.00,NE,47,1.0,3.0,78,-99.99,,,-99.99,,2013-05-30 12:32:00,
2013-05-30 05:42:00,35.0,32.0,-100.00,South,169,2.0,6.0,89,-99.99,,,-99.99,,2013-05-30 12:42:00,
2013-05-30 05:52:00,35.0,32.0,-100.00,South,169,2.0,6.0,89,-99.99,,,-99.99,,2013-05-30 12:52:00,
2013-05-30 06:01:00,35.0,32.0,-100.00,SE,136,2.0,5.0,87,-99.99,,,-99.99,,2013-05-30 13:01:00,
2013-05-30 06:11:00,35.0,32.0,-100.00,SE,136,2.0,5.0,87,-99.99,,,-99.99,,2013-05-30 13:11:00,
2013-05-30 06:22:00,35.0,32.0,-100.00,SE,136,2.0,5.0,87,-99.99,,,-99.99,,2013-05-30 13:22:00,
2013-05-30 06:42:00,37.0,35.0,-100.00,WNW,284,0.0,2.0,93,-99.99,,,-99.99,,2013-05-30 13:42:00,
2013-05-30 06:52:00,40.0,34.0,-100.00,ENE,75,1.0,4.0,79,-99.99,,,-99.99,,2013-05-30 13:52:00,
2013-05-30 07:01:00,40.0,34.0,-100.00,ENE,75,1.0,4.0,79,-99.99,,,-99.99,,2013-05-30 14:01:00,
2013-05-30 07:11:00,39.0,33.0,-100.00,SE,124,2.0,5.0,80,-99.99,,,-99.99,,2013-05-30 14:11:00,
2013-05-30 07:21:00,46.0,37.0,-100.00,WSW,253,0.0,2.0,71,-99.99,,,-99.99,,2013-05-30 14:21:00,
2013-05-30 07:22:00,39.0,34.0,-100.00,ESE,121,2.0,5.0,82,-99.99,,,-99.99,,2013-05-30 14:22:00,
2013-05-30 07:32:00,43.0,36.0,-100.00,SE,133,0.0,3.0,74,-99.99,,,-99.99,,2013-05-30 14:32:00,
2013-05-30 07:42:00,43.0,36.0,-100.00,SE,133,0.0,3.0,74,-99.99,,,-99.99,,2013-05-30 14:42:00,
2013-05-30 07:51:00,46.0,37.0,-100.00,WSW,253,0.0,2.0,71,-99.99,,,-99.99,,2013-05-30 14:51:00,
2013-05-30 08:01:00,46.0,37.0,-100.00,WSW,253,0.0,2.0,71,-99.99,,,-99.99,,2013-05-30 15:01:00,
2013-05-30 08:11:00,46.0,37.0,-100.00,WSW,253,0.0,2.0,71,-99.99,,,-99.99,,2013-05-30 15:11:00,
2013-05-30 08:33:00,53.0,39.0,-100.00,East,99,0.0,3.0,60,-99.99,,,-99.99,,2013-05-30 15:33:00,
2013-05-30 08:43:00,53.0,39.0,-100.00,East,99,0.0,3.0,60,-99.99,,,-99.99,,2013-05-30 15:43:00,
2013-05-30 08:52:00,53.0,39.0,-100.00,SW,216,1.0,3.0,58,-99.99,,,-99.99,,2013-05-30 15:52:00,
2013-05-30 09:03:00,53.0,39.0,-100.00,SW,216,1.0,3.0,58,-99.99,,,-99.99,,2013-05-30 16:03:00,
2013-05-30 09:12:00,54.0,41.0,-100.00,South,175,1.0,3.0,61,-99.99,,,-99.99,,2013-05-30 16:12:00,
2013-05-30 09:22:00,54.0,41.0,-100.00,South,175,1.0,3.0,61,-99.99,,,-99.99,,2013-05-30 16:22:00,
2013-05-30 09:33:00,56.0,40.0,-100.00,SSW,210,1.0,3.0,54,-99.99,,,-99.99,,2013-05-30 16:33:00,
2013-05-30 09:42:00,56.0,40.0,-100.00,SSW,210,1.0,3.0,54,-99.99,,,-99.99,,2013-05-30 16:42:00,
2013-05-30 09:52:00,58.0,38.0,-100.00,SW,217,1.0,4.0,48,-99.99,,,-99.99,,2013-05-30 16:52:00,
2013-05-30 10:02:00,58.0,38.0,-100.00,SW,217,1.0,4.0,48,-99.99,,,-99.99,,2013-05-30 17:02:00,
2013-05-30 10:11:00,61.0,39.0,-100.00,ESE,113,0.0,3.0,44,-99.99,,,-99.99,,2013-05-30 17:11:00,
2013-05-30 10:22:00,60.0,40.0,-100.00,SE,127,0.0,4.0,47,-99.99,,,-99.99,,2013-05-30 17:22:00,
2013-05-30 10:32:00,60.0,36.0,-100.00,SSW,195,2.0,6.0,40,-99.99,,,-99.99,,2013-05-30 17:32:00,
2013-05-30 10:42:00,60.0,36.0,-100.00,SSW,195,2.0,6.0,40,-99.99,,,-99.99,,2013-05-30 17:42:00,
2013-05-30 10:52:00,60.0,36.0,-100.00,SSW,195,2.0,6.0,40,-99.99,,,-99.99,,2013-05-30 17:52:00,
2013-05-30 11:02:00,63.0,38.0,-100.00,SE,143,1.0,5.0,39,-99.99,,,-99.99,,2013-05-30 18:02:00,
2013-05-30 11:11:00,61.0,38.0,-100.00,SSW,202,2.0,7.0,42,-99.99,,,-99.99,,2013-05-30 18:11:00,
2013-05-30 11:21:00,61.0,38.0,-100.00,SSW,202,2.0,7.0,42,-99.99,,,-99.99,,2013-05-30 18:21:00,
2013-05-30 11:32:00,62.0,35.0,-100.00,South,186,2.0,5.0,36,-99.99,,,-99.99,,2013-05-30 18:32:00,
2013-05-30 11:42:00,62.0,35.0,-100.00,South,186,2.0,5.0,36,-99.99,,,-99.99,,2013-05-30 18:42:00,
2013-05-30 11:52:00,64.0,34.0,-100.00,SW,220,2.0,6.0,33,-99.99,,,-99.99,,2013-05-30 18:52:00,
2013-05-30 12:01:00,64.0,34.0,-100.00,SW,220,2.0,6.0,33,-99.99,,,-99.99,,2013-05-30 19:01:00,
2013-05-30 12:11:00,67.0,36.0,-100.00,WNW,302,1.0,5.0,32,-99.99,,,-99.99,,2013-05-30 19:11:00,
2013-05-30 12:22:00,67.0,36.0,-100.00,WNW,302,1.0,5.0,32,-99.99,,,-99.99,,2013-05-30 19:22:00,
2013-05-30 12:32:00,67.0,31.0,-100.00,SSE,155,3.0,7.0,26,-99.99,,,-99.99,,2013-05-30 19:32:00,
2013-05-30 12:42:00,67.0,31.0,-100.00,SSE,155,3.0,7.0,26,-99.99,,,-99.99,,2013-05-30 19:42:00,
2013-05-30 12:52:00,69.0,24.0,-100.00,West,261,3.0,10.0,18,-99.99,,,-99.99,,2013-05-30 19:52:00,
2013-05-30 13:01:00,69.0,24.0,-100.00,West,261,3.0,10.0,18,-99.99,,,-99.99,,2013-05-30 20:01:00,
2013-05-30 13:11:00,70.0,23.0,-100.00,SSE,150,2.0,5.0,17,-99.99,,,-99.99,,2013-05-30 20:11:00,
2013-05-30 13:22:00,72.0,15.0,-100.00,NNE,21,2.0,6.0,11,-99.99,,,-99.99,,2013-05-30 20:22:00,
2013-05-30 13:33:00,71.0,18.0,-100.00,West,270,2.0,6.0,13,-99.99,,,-99.99,,2013-05-30 20:33:00,
2013-05-30 13:42:00,71.0,18.0,-100.00,West,270,2.0,6.0,13,-99.99,,,-99.99,,2013-05-30 20:42:00,
2013-05-30 13:52:00,72.0,21.0,-100.00,West,275,3.0,7.0,14,-99.99,,,-99.99,,2013-05-30 20:52:00,
2013-05-30 14:01:00,72.0,21.0,-100.00,West,275,3.0,7.0,14,-99.99,,,-99.99,,2013-05-30 21:01:00,
2013-05-30 14:02:00,74.0,20.0,-100.00,NNW,337,6.0,11.0,13,-99.99,,,-99.99,,2013-05-30 21:02:00,
2013-05-30 14:11:00,73.0,19.0,-100.00,NNW,344,6.0,13.0,13,-99.99,,,-99.99,,2013-05-30 21:11:00,
2013-05-30 14:22:00,73.0,19.0,-100.00,NNW,344,6.0,13.0,13,-99.99,,,-99.99,,2013-05-30 21:22:00,
2013-05-30 14:33:00,74.0,20.0,-100.00,NNW,337,6.0,11.0,13,-99.99,,,-99.99,,2013-05-30 21:33:00,
2013-05-30 14:42:00,74.0,20.0,-100.00,NNW,337,6.0,11.0,13,-99.99,,,-99.99,,2013-05-30 21:42:00,
2013-05-30 14:53:00,74.0,20.0,-100.00,NNW,337,6.0,11.0,13,-99.99,,,-99.99,,2013-05-30 21:53:00,
2013-05-30 15:12:00,73.0,21.0,-100.00,West,277,8.0,14.0,14,-99.99,,,-99.99,,2013-05-30 22:12:00,
2013-05-30 15:22:00,73.0,21.0,-100.00,West,277,8.0,14.0,14,-99.99,,,-99.99,,2013-05-30 22:22:00,
2013-05-30 15:33:00,73.0,27.0,-100.00,West,263,10.0,18.0,18,-99.99,,,-99.99,,2013-05-30 22:33:00,
2013-05-30 15:42:00,73.0,27.0,-100.00,West,263,10.0,18.0,18,-99.99,,,-99.99,,2013-05-30 22:42:00,
2013-05-30 15:52:00,73.0,35.0,-100.00,West,261,10.0,17.0,25,-99.99,,,-99.99,,2013-05-30 22:52:00,
2013-05-30 16:02:00,73.0,35.0,-100.00,West,261,10.0,17.0,25,-99.99,,,-99.99,,2013-05-30 23:02:00,
2013-05-30 16:11:00,73.0,31.0,-100.00,WSW,250,10.0,20.0,21,-99.99,,,-99.99,,2013-05-30 23:11:00,
2013-05-30 16:22:00,72.0,29.0,-100.00,West,263,14.0,22.0,20,-99.99,,,-99.99,,2013-05-30 23:22:00,
2013-05-30 16:31:00,71.0,34.0,-100.00,West,270,16.0,24.0,26,-99.99,,,-99.99,,2013-05-30 23:31:00,
2013-05-30 16:41:00,71.0,34.0,-100.00,West,270,16.0,24.0,26,-99.99,,,-99.99,,2013-05-30 23:41:00,
2013-05-30 16:52:00,71.0,38.0,-100.00,West,263,13.0,21.0,30,-99.99,,,-99.99,,2013-05-30 23:52:00,
2013-05-30 17:01:00,71.0,38.0,-100.00,West,263,13.0,21.0,30,-99.99,,,-99.99,,2013-05-31 00:01:00,
2013-05-30 17:11:00,71.0,38.0,-100.00,West,263,13.0,21.0,30,-99.99,,,-99.99,,2013-05-31 00:11:00,
2013-05-30 17:21:00,71.0,37.0,-100.00,West,272,10.0,18.0,29,-99.99,,,-99.99,,2013-05-31 00:21:00,
2013-05-30 17:32:00,71.0,36.0,-100.00,West,268,10.0,19.0,28,-99.99,,,-99.99,,2013-05-31 00:32:00,
2013-05-30 17:42:00,71.0,36.0,-100.00,West,268,10.0,19.0,28,-99.99,,,-99.99,,2013-05-31 00:42:00,
2013-05-30 17:52:00,71.0,35.0,-100.00,West,274,7.0,16.0,27,-99.99,,,-99.99,,2013-05-31 00:52:00,
2013-05-30 18:01:00,71.0,35.0,-100.00,West,274,7.0,16.0,27,-99.99,,,-99.99,,2013-05-31 01:01:00,
2013-05-30 18:12:00,70.0,36.0,-100.00,WSW,256,11.0,17.0,29,-99.99,,,-99.99,,2013-05-31 01:12:00,
2013-05-30 18:21:00,70.0,35.0,-100.00,WSW,253,12.0,19.0,28,-99.99,,,-99.99,,2013-05-31 01:21:00,
2013-05-30 18:31:00,68.0,33.0,-100.00,SW,236,18.0,24.0,27,-99.99,,,-99.99,,2013-05-31 01:31:00,
2013-05-30 18:42:00,68.0,33.0,-100.00,SW,236,18.0,24.0,27,-99.99,,,-99.99,,2013-05-31 01:42:00,
2013-05-30 18:52:00,68.0,30.0,-100.00,WSW,246,20.0,26.0,24,-99.99,,,-99.99,,2013-05-31 01:52:00,
2013-05-30 19:02:00,68.0,30.0,-100.00,WSW,246,20.0,26.0,24,-99.99,,,-99.99,,2013-05-31 02:02:00,
2013-05-30 19:11:00,69.0,33.0,-100.00,SSW,199,9.0,20.0,26,-99.99,,,-99.99,,2013-05-31 02:11:00,
2013-05-30 19:21:00,69.0,33.0,-100.00,SSW,199,9.0,20.0,26,-99.99,,,-99.99,,2013-05-31 02:21:00,
2013-05-30 19:32:00,67.0,32.0,-100.00,South,182,8.0,19.0,27,-99.99,,,-99.99,,2013-05-31 02:32:00,
2013-05-30 19:41:00,67.0,32.0,-100.00,South,182,8.0,19.0,27,-99.99,,,-99.99,,2013-05-31 02:41:00,
2013-05-30 19:52:00,69.0,18.0,-100.00,NW,308,5.0,21.0,14,-99.99,,,-99.99,,2013-05-31 02:52:00,
2013-05-30 20:01:00,69.0,18.0,-100.00,NW,308,5.0,21.0,14,-99.99,,,-99.99,,2013-05-31 03:01:00,
2013-05-30 20:11:00,68.0,24.0,-100.00,NW,309,6.0,15.0,19,-99.99,,,-99.99,,2013-05-31 03:11:00,
2013-05-30 20:21:00,66.0,25.0,-100.00,West,260,4.0,12.0,21,-99.99,,,-99.99,,2013-05-31 03:21:00,
2013-05-30 20:33:00,66.0,25.0,-100.00,West,260,4.0,12.0,21,-99.99,,,-99.99,,2013-05-31 03:33:00,
2013-05-30 20:53:00,64.0,26.0,-100.00,SW,229,11.0,20.0,24,-99.99,,,-99.99,,2013-05-31 03:53:00,
2013-05-30 21:02:00,64.0,26.0,-100.00,SW,229,11.0,20.0,24,-99.99,,,-99.99,,2013-05-31 04:02:00,
2013-05-30 21:12:00,62.0,30.0,-100.00,SW,220,14.0,24.0,30,-99.99,,,-99.99,,2013-05-31 04:12:00,
2013-05-30 21:22:00,62.0,30.0,-100.00,SW,220,14.0,24.0,30,-99.99,,,-99.99,,2013-05-31 04:22:00,
2013-05-30 21:32:00,60.0,28.0,-100.00,WSW,256,9.0,19.0,29,-99.99,,,-99.99,,2013-05-31 04:32:00,
2013-05-30 21:42:00,60.0,28.0,-100.00,WSW,256,9.0,19.0,29,-99.99,,,-99.99,,2013-05-31 04:42:00,
2013-05-30 21:53:00,60.0,31.0,-100.00,West,265,4.0,15.0,33,-99.99,,,-99.99,,2013-05-31 04:53:00,
2013-05-30 22:02:00,60.0,31.0,-100.00,West,265,4.0,15.0,33,-99.99,,,-99.99,,2013-05-31 05:02:00,
2013-05-30 22:12:00,60.0,31.0,-100.00,West,265,4.0,15.0,33,-99.99,,,-99.99,,2013-05-31 05:12:00,
2013-05-30 22:22:00,59.0,34.0,-100.00,SW,226,9.0,15.0,38,-99.99,,,-99.99,,2013-05-31 05:22:00,
2013-05-30 22:31:00,60.0,33.0,-100.00,WSW,239,11.0,17.0,36,-99.99,,,-99.99,,2013-05-31 05:31:00,
2013-05-30 22:42:00,60.0,33.0,-100.00,WSW,239,11.0,17.0,36,-99.99,,,-99.99,,2013-05-31 05:42:00,
2013-05-30 22:52:00,59.0,32.0,-100.00,West,264,8.0,13.0,36,-99.99,,,-99.99,,2013-05-31 05:52:00,
2013-05-30 23:01:00,59.0,32.0,-100.00,West,264,8.0,13.0,36,-99.99,,,-99.99,,2013-05-31 06:01:00,
2013-05-30 23:12:00,59.0,32.0,-100.00,West,264,8.0,13.0,36,-99.99,,,-99.99,,2013-05-31 06:12:00,
2013-05-30 23:21:00,59.0,32.0,-100.00,NW,312,3.0,7.0,36,-99.99,,,-99.99,,2013-05-31 06:21:00,
2013-05-30 23:31:00,57.0,32.0,-100.00,SE,136,3.0,5.0,38,-99.99,,,-99.99,,2013-05-31 06:31:00,
2013-05-30 23:41:00,57.0,32.0,-100.00,SE,136,3.0,5.0,38,-99.99,,,-99.99,,2013-05-31 06:41:00,
2013-05-30 23:51:00,50.0,35.0,-100.00,East,92,4.0,7.0,56,-99.99,,,-99.99,,2013-05-31 06:51:00,